Waarnemingen

Advertentie
Mijn weer
Charleroi/Gosselies, België (6449): temperatuur & dauwpunt: 16.04.2019 16:00:00 - 22.04.2019 16:00:00 (CEST)Charleroi/Gosselies, België (6449): windsnelheid & windstoten: 16.04.2019 16:00:00 - 22.04.2019 16:00:00 (CEST)Charleroi/Gosselies, België (6449): windrichting: 16.04.2019 16:00:00 - 22.04.2019 16:00:00 (CEST)Charleroi/Gosselies, België (6449): luchtdruk: 16.04.2019 16:00:00 - 22.04.2019 16:00:00 (CEST)Charleroi/Gosselies, België (6449): zicht: 16.04.2019 16:00:00 - 22.04.2019 16:00:00 (CEST)
Datum & Tijd tt [°C] td [°C] ff [km/u] ff [kn] fx [km/u] fx [kn] dd ppp [hPa] vv [km]
22.04.2019 16:00:00 23,8 -2,5 16 9 32 18 OZO 1004,5 10
22.04.2019 15:00:00 24,0 0,8 21 11 32 18 O 1005,3 10
22.04.2019 14:00:00 23,2 -3,5 18 10 - - O 1006,0 10
22.04.2019 13:00:00 22,5 -0,4 22 12 40 21 O 1006,7 10
22.04.2019 12:00:00 21,8 -0,2 18 10 36 19 OZO 1007,7 10
22.04.2019 11:00:00 20,1 1,8 18 10 - - ZO 1008,5 10
22.04.2019 10:00:00 17,8 2,4 15 8 29 16 ZO 1009,1 10
22.04.2019 09:00:00 15,5 2,6 11 6 18 10 OZO 1009,7 10
22.04.2019 08:00:00 14,2 1,3 9 5 - - O 1010,0 10
22.04.2019 07:00:00 12,3 1,2 9 5 14 8 OZO 1010,4 10
22.04.2019 06:00:00 12,4 1,0 9 5 11 6 O 1010,8 10
22.04.2019 05:00:00 13,0 2,1 8 4 - - OZO 1011,5 10
22.04.2019 04:00:00 12,9 3,3 8 4 11 6 O 1012,1 10
22.04.2019 03:00:00 12,0 3,8 8 4 7 4 O 1012,9 10
22.04.2019 02:00:00 13,0 4,5 8 4 - - O 1013,5 10
22.04.2019 01:00:00 13,9 3,8 11 6 14 8 O 1014,0 10
22.04.2019 00:00:00 15,7 3,5 9 5 18 10 ONO 1014,1 10
21.04.2019 23:00:00 17,0 3,5 13 7 - - ONO 1014,5 10
21.04.2019 22:00:00 17,7 4,1 15 8 22 12 ONO 1014,9 10
21.04.2019 21:00:00 19,8 3,5 16 9 22 12 ONO 1014,7 10
21.04.2019 20:00:00 20,2 5,7 15 8 - - ONO 1014,7 10
21.04.2019 19:00:00 22,0 5,2 21 11 29 16 NO 1015,0 10
21.04.2019 18:00:00 22,9 5,8 15 8 25 14 NO 1015,6 10
21.04.2019 17:00:00 23,2 5,5 15 8 - - ONO 1016,3 10
21.04.2019 16:00:00 22,7 4,3 15 8 25 14 NO 1017,2 10
21.04.2019 15:00:00 22,1 3,5 16 9 25 14 NO 1018,0 10
21.04.2019 14:00:00 21,6 5,9 15 8 - - NO 1018,9 10
21.04.2019 13:00:00 20,5 6,6 13 7 22 12 NO 1019,7 10
21.04.2019 12:00:00 18,6 7,4 13 7 22 12 NO 1020,5 10
21.04.2019 11:00:00 17,2 7,2 11 6 - - ONO 1021,2 10
21.04.2019 10:00:00 14,8 5,3 9 5 14 8 ONO 1021,7 10
21.04.2019 09:00:00 12,5 5,3 8 4 14 8 ONO 1022,0 10
21.04.2019 08:00:00 10,6 5,1 8 4 - - ONO 1022,3 10
21.04.2019 07:00:00 9,3 3,2 11 6 14 8 ONO 1022,6 10
21.04.2019 06:00:00 10,0 3,9 11 6 11 6 ONO 1023,0 10
21.04.2019 05:00:00 11,5 3,8 9 5 - - ONO 1023,4 10
21.04.2019 04:00:00 11,8 4,5 8 4 11 6 O 1023,9 10
21.04.2019 03:00:00 11,7 4,6 9 5 14 8 NO 1024,3 10
21.04.2019 02:00:00 12,6 4,2 11 6 - - NO 1024,8 20
21.04.2019 01:00:00 13,9 3,8 13 7 18 10 NO 1025,2 10
21.04.2019 00:00:00 14,6 3,9 11 6 14 8 NNO 1025,3 10
20.04.2019 23:00:00 15,9 4,6 9 5 - - NO 1025,4 10
20.04.2019 22:00:00 17,0 4,3 11 6 18 10 NO 1025,3 10
20.04.2019 21:00:00 18,6 4,1 13 7 22 12 NO 1025,0 10
20.04.2019 20:00:00 20,6 4,2 15 8 - - NO 1024,9 10
20.04.2019 19:00:00 22,1 2,2 21 11 32 18 NO 1025,2 10
20.04.2019 18:00:00 22,8 2,3 22 12 32 18 NO 1025,5 10
20.04.2019 17:00:00 23,0 4,2 21 11 - - NO 1025,9 10
20.04.2019 16:00:00 23,1 4,5 18 10 36 19 ONO 1026,4 10
20.04.2019 15:00:00 22,6 4,7 21 11 29 16 NO 1027,0 10
20.04.2019 14:00:00 22,0 5,4 18 10 - - NO 1027,5 10
20.04.2019 13:00:00 21,8 6,1 18 10 25 14 NO 1027,9 10
20.04.2019 12:00:00 20,6 5,7 15 8 22 12 NO 1028,2 10
20.04.2019 11:00:00 18,8 5,5 8 4 - - NNO 1028,6 10
20.04.2019 10:00:00 17,2 4,7 8 4 11 6 NNO 1028,7 10
20.04.2019 09:00:00 16,5 3,9 5 3 11 6 ONO 1028,6 10
20.04.2019 08:00:00 12,6 4,6 4 2 - - - 1028,6 10
20.04.2019 07:00:00 10,2 2,6 4 2 7 4 - 1028,4 10
20.04.2019 06:00:00 9,8 3,4 8 4 11 6 NO 1028,4 10
20.04.2019 05:00:00 10,6 3,4 8 4 - - NO 1028,5 10
20.04.2019 04:00:00 11,4 3,1 4 2 11 6 O 1028,3 10
20.04.2019 03:00:00 11,4 3,6 9 5 11 6 O 1028,2 10
20.04.2019 02:00:00 11,4 4,5 9 5 - - ONO 1028,3 10
20.04.2019 01:00:00 15,1 4,1 8 4 11 6 OZO 1027,9 10
20.04.2019 00:00:00 14,4 3,9 9 5 11 6 ONO 1027,8 10
19.04.2019 23:00:00 16,7 3,1 8 4 - - ONO 1027,5 10
19.04.2019 22:00:00 17,0 3,7 15 8 22 12 NO 1027,2 10
19.04.2019 21:00:00 18,3 4,2 16 9 22 12 NO 1026,7 10
19.04.2019 20:00:00 20,3 5,7 16 9 - - ONO 1026,1 10
19.04.2019 19:00:00 22,0 6,6 21 11 29 16 NO 1025,7 10
19.04.2019 18:00:00 22,8 3,5 16 9 29 16 NO 1025,5 10
19.04.2019 17:00:00 23,0 5,1 18 10 - - ONO 1025,5 10
19.04.2019 16:00:00 23,1 6,3 15 8 29 16 NO 1025,6 10
19.04.2019 15:00:00 21,9 5,9 15 8 25 14 NNO 1026,0 10
19.04.2019 14:00:00 21,1 7,1 18 10 - - NO 1026,1 10
19.04.2019 13:00:00 20,7 6,5 16 9 22 12 ONO 1026,3 10
19.04.2019 12:00:00 19,3 5,7 13 7 22 12 ONO 1026,5 10
19.04.2019 11:00:00 18,0 5,4 9 5 - - NO 1026,7 10
19.04.2019 10:00:00 15,2 4,4 11 6 18 10 ONO 1026,6 10
19.04.2019 09:00:00 12,7 4,4 11 6 18 10 ONO 1026,5 10
19.04.2019 08:00:00 10,0 3,9 11 6 - - ONO 1026,4 10
19.04.2019 07:00:00 9,0 3,9 13 7 18 10 ONO 1026,0 10
19.04.2019 06:00:00 8,4 4,0 13 7 14 8 ONO 1025,8 10
19.04.2019 05:00:00 8,2 4,1 13 7 - - ONO 1025,6 10
19.04.2019 04:00:00 9,1 4,2 14 8 14 8 ONO 1025,3 20
19.04.2019 03:00:00 10,4 4,2 9 5 18 10 NO 1024,9 10
19.04.2019 02:00:00 12,0 4,1 9 5 - - ONO 1024,8 10
19.04.2019 01:00:00 11,8 5,1 8 4 11 6 ONO 1024,8 10
19.04.2019 00:00:00 13,8 4,8 8 4 11 6 ONO 1024,4 10
18.04.2019 23:00:00 14,3 5,5 9 5 - - ONO 1024,0 10
18.04.2019 22:00:00 15,5 5,1 13 7 18 10 O 1023,6 10
18.04.2019 21:00:00 16,0 6,0 15 8 25 14 ONO 1022,9 10
18.04.2019 20:00:00 18,6 5,0 21 11 - - ONO 1022,1 10
18.04.2019 19:00:00 19,9 4,7 26 14 36 19 ONO 1021,7 10
18.04.2019 18:00:00 20,9 1,3 24 13 36 19 ONO 1021,5 10
18.04.2019 17:00:00 21,1 1,6 24 13 - - O 1021,5 10
18.04.2019 16:00:00 21,1 0,4 22 12 40 21 ONO 1021,8 10
18.04.2019 15:00:00 20,8 0,8 22 12 40 21 O 1021,9 10
18.04.2019 14:00:00 20,0 1,0 22 12 - - O 1022,2 10
18.04.2019 13:00:00 19,3 1,7 24 13 36 19 O 1022,4 10
18.04.2019 12:00:00 18,4 2,1 15 8 29 16 O 1022,9 10
18.04.2019 11:00:00 16,2 3,1 16 9 - - O 1023,3 10
18.04.2019 10:00:00 13,8 3,6 13 7 22 12 OZO 1023,2 10
18.04.2019 09:00:00 11,2 5,2 8 4 25 14 O 1023,2 9
18.04.2019 08:00:00 8,0 6,1 9 5 - - ONO 1022,9 6
18.04.2019 07:00:00 6,3 5,5 9 5 14 8 ONO 1022,7 4,5
18.04.2019 06:00:00 6,0 5,3 9 5 14 8 ONO 1022,5 3,8
18.04.2019 05:00:00 6,7 6,1 9 5 - - ONO 1022,8 4,0
18.04.2019 04:00:00 7,1 6,3 8 4 11 6 ONO 1022,7 5
18.04.2019 03:00:00 7,3 6,4 9 5 14 8 ONO 1022,5 5
18.04.2019 02:00:00 9,2 7,5 9 5 - - O 1022,5 6
18.04.2019 01:00:00 8,2 6,7 11 6 14 8 NO 1022,7 10
18.04.2019 00:00:00 10,1 7,4 8 4 11 6 ONO 1022,3 10
17.04.2019 23:00:00 10,4 7,4 8 4 - - ONO 1022,4 10
17.04.2019 22:00:00 11,4 7,5 9 5 14 8 ONO 1022,3 10
17.04.2019 21:00:00 11,6 7,7 11 6 18 10 ONO 1021,5 10
17.04.2019 20:00:00 13,1 7,9 16 9 - - ONO 1021,1 10
17.04.2019 19:00:00 13,8 7,2 13 7 14 8 ONO 1021,3 10
17.04.2019 18:00:00 13,6 6,8 9 5 14 8 O 1021,4 9
17.04.2019 17:00:00 13,5 7,1 5 3 - - ZO 1021,5 9
17.04.2019 16:00:00 13,1 7,5 5 3 22 12 ZO 1021,7 9
17.04.2019 15:00:00 13,2 7,8 11 6 22 12 ZZO 1021,7 9
17.04.2019 14:00:00 12,3 7,9 11 6 - - ZZO 1021,8 7
17.04.2019 13:00:00 11,9 7,7 11 6 18 10 Z 1021,8 7
17.04.2019 12:00:00 11,2 7,5 9 5 18 10 Z 1022,0 6
17.04.2019 11:00:00 10,9 7,1 8 4 - - ZZW 1021,7 4,8
17.04.2019 10:00:00 9,9 7,5 11 6 18 10 ZZW 1021,3 4,5
17.04.2019 09:00:00 9,7 7,6 8 4 11 6 Z 1020,7 4,5
17.04.2019 08:00:00 9,3 7,4 4 2 - - - 1020,4 4,5
17.04.2019 07:00:00 9,1 7,0 5 3 11 6 Z 1019,8 4,2
17.04.2019 06:00:00 9,3 6,8 9 5 11 6 ZZW 1019,5 8
17.04.2019 05:00:00 9,3 6,9 8 4 - - ZZW 1019,4 8
17.04.2019 04:00:00 9,5 7,1 5 3 14 8 ZW 1019,2 8
17.04.2019 03:00:00 9,8 7,3 11 6 14 8 ZW 1019,0 8
17.04.2019 02:00:00 9,9 7,8 9 5 - - ZZW 1018,9 10
17.04.2019 01:00:00 9,9 8,2 5 3 14 8 Z 1018,8 10
17.04.2019 00:00:00 10,2 8,1 8 4 14 8 Z 1018,7 10
16.04.2019 23:00:00 10,5 8,0 9 5 - - Z 1018,5 10
16.04.2019 22:00:00 11,0 7,6 9 5 18 10 Z 1018,2 10
16.04.2019 21:00:00 11,5 7,5 11 6 18 10 ZZO 1017,6 10
16.04.2019 20:00:00 12,1 7,0 11 6 - - Z 1017,0 10
16.04.2019 19:00:00 12,5 7,0 15 8 29 16 Z 1016,5 10
16.04.2019 18:00:00 12,9 7,1 21 11 29 16 ZZO 1016,2 10
16.04.2019 17:00:00 13,4 6,8 21 11 - - ZZO 1015,7 10
16.04.2019 16:00:00 14,3 5,5 21 11 32 18 Z 1015,4 10

tt = temperatuur
td = dauwpunt
ff = windsnelheid
fx = windstoten
dd = windrichting
ppp = luchtdruk
vv = zicht

Weerstations in de omgeving